DW7013 Weather Reports


Display with metric or nautical units.
time (UTC)temp
F
wind
direction
speed
MPH
gust
MPH
rain 1hr
in
rain 24hr
in
rain mn
in
humidity
%
barometer
mb
20260504003714 51 355 0.0 0.0 0.00 0.00 0.00 71 1016.4
20260504003227 51 355 0.0 0.0 0.00 0.00 0.00 72 1016.2
20260504002722 51 355 0.0 0.0 0.00 0.00 0.00 72 1016.4
20260504002215 51 355 0.0 0.0 0.00 0.00 0.00 72 1016.5
20260504001731 51 355 0.0 0.0 0.00 0.00 0.00 71 1016.5
20260504001219 51 5 0.0 0.0 0.00 0.00 0.00 72 1016.5
20260504000721 51 5 0.0 0.0 0.00 0.00 0.00 71 1016.5
20260504000219 51 5 0.0 0.0 0.00 0.00 0.00 71 1016.4
20260503235744 51 5 0.0 0.0 0.00 0.00 0.00 71 1016.5
20260503235215 51 5 0.0 0.0 0.00 0.00 0.00 71 1016.5
20260503234715 51 5 0.0 0.0 0.00 0.00 0.00 71 1016.5
20260503234213 52 5 0.0 0.0 0.00 0.00 0.00 70 1016.4
20260503233722 52 5 0.0 0.0 0.00 0.00 0.00 71 1016.5
20260503233222 52 5 0.0 0.0 0.00 0.00 0.00 70 1016.5
20260503232724 52 5 0.0 0.0 0.00 0.00 0.00 70 1016.4
20260503232229 52 5 0.0 0.0 0.00 0.00 0.00 70 1016.4
20260503231713 52 355 0.0 0.0 0.00 0.00 0.00 70 1016.5
20260503230723 52 355 0.0 0.0 0.00 0.00 0.00 69 1016.4
20260503230214 52 355 0.0 0.0 0.00 0.00 0.00 69 1016.4
20260503225721 53 355 0.0 0.0 0.00 0.00 0.00 69 1016.5
20260503225223 53 355 0.0 0.0 0.00 0.00 0.00 69 1016.4
20260503224718 53 355 0.0 0.0 0.00 0.00 0.00 68 1016.4
20260503224214 53 355 0.0 0.0 0.00 0.00 0.00 69 1016.4
20260503223709 53 355 0.0 0.0 0.00 0.00 0.00 68 1016.4
20260503223209 53 355 0.0 0.0 0.00 0.00 0.00 68 1016.2
20260503222709 53 355 0.0 0.0 0.00 0.00 0.00 68 1016.2
20260503222224 53 355 0.0 0.0 0.00 0.00 0.00 68 1016.2
20260503221728 53 355 0.0 0.0 0.00 0.00 0.00 68 1016.1
20260503221211 53 355 0.0 0.0 0.00 0.00 0.00 68 1016.1
20260503215722 53 355 0.0 0.0 0.00 0.00 0.00 67 1016.2
20260503215219 53 355 0.0 0.0 0.00 0.00 0.00 67 1016.1
20260503214720 53 355 0.0 0.0 0.00 0.00 0.00 67 1016.2
20260503214225 53 355 0.0 0.0 0.00 0.00 0.00 67 1016.2
20260503213720 53 341 0.0 0.0 0.00 0.00 0.00 68 1016.2
20260503213219 53 341 0.0 0.0 0.00 0.00 0.00 68 1016.2
20260503212216 53 341 0.0 0.0 0.00 0.00 0.00 66 1016.2
20260503211218 53 344 0.0 0.0 0.00 0.00 0.00 67 1016.2
20260503210712 53 344 0.0 0.0 0.00 0.00 0.00 66 1016.1
20260503210222 53 344 0.0 0.0 0.00 0.00 0.00 67 1016.1
20260503205723 53 344 0.0 0.0 0.00 0.00 0.00 67 1016.1
20260503205226 54 344 0.0 0.0 0.00 0.00 0.00 67 1016.1
20260503204223 54 344 0.0 0.0 0.00 0.00 0.00 66 1016.2
20260503203719 54 344 0.0 0.0 0.00 0.00 0.00 66 1016.2
20260503203209 54 344 0.0 0.0 0.00 0.00 0.00 66 1016.2
20260503202723 54 344 0.0 0.0 0.00 0.00 0.00 66 1016.2
20260503202226 54 348 0.0 0.0 0.00 0.00 0.00 65 1016.2
20260503201719 54 348 0.0 0.0 0.00 0.00 0.00 65 1016.4
20260503201227 54 348 0.0 0.0 0.00 0.00 0.00 65 1016.2
20260503200724 54 308 0.0 0.0 0.00 0.00 0.00 64 1016.2
20260503200224 54 304 0.0 0.0 0.00 0.00 0.00 64 1016.1
20260503195722 54 304 0.0 0.0 0.00 0.00 0.00 63 1016.1
20260503195216 55 308 0.0 0.0 0.00 0.00 0.00 63 1016.1
20260503194715 55 319 0.0 0.0 0.00 0.00 0.00 62 1016.1
20260503194228 55 319 0.0 0.0 0.00 0.00 0.00 61 1016.0
20260503193714 55 319 0.0 0.0 0.00 0.00 0.00 62 1016.0
20260503193222 55 304 0.0 0.0 0.00 0.00 0.00 61 1015.9
20260503192720 55 136 0.0 0.0 0.00 0.00 0.00 60 1016.0
20260503191220 55 146 0.0 0.0 0.00 0.00 0.00 59 1015.8
20260503190749 55 148 0.0 0.0 0.00 0.00 0.00 59 1015.8
20260503185722 56 73 0.0 0.0 0.00 0.00 0.00 59 1015.7
20260503185219 56 116 0.0 0.0 0.00 0.00 0.00 57 1015.8
20260503184710 56 117 0.0 0.0 0.00 0.00 0.00 57 1015.8
20260503183716 56 301 0.0 0.0 0.00 0.00 0.00 55 1015.9
20260503183217 56 326 0.0 0.0 0.00 0.00 0.00 55 1015.9
20260503182209 56 326 0.0 0.0 0.00 0.00 0.00 54 1015.9
20260503181727 56 342 0.0 0.0 0.00 0.00 0.00 55 1015.9
20260503181224 56 47 0.0 0.0 0.00 0.00 0.00 55 1015.8
20260503180709 56 13 0.0 0.0 0.00 0.00 0.00 54 1016.0
20260503180227 56 118 0.0 0.0 0.00 0.00 0.00 54 1016.0
20260503175713 56 308 0.0 0.0 0.00 0.00 0.00 54 1016.1
20260503175224 56 306 0.0 2.0 0.00 0.00 0.00 54 1016.0
20260503174726 56 343 0.0 2.0 0.00 0.00 0.00 55 1016.0
20260503174218 56 348 0.0 2.0 0.00 0.00 0.00 54 1016.1
20260503173705 56 328 0.0 1.0 0.00 0.00 0.00 54 1016.2
20260503173222 56 123 0.0 1.0 0.00 0.00 0.00 55 1016.4
20260503172729 56 55 0.0 7.0 0.00 0.00 0.00 56 1016.5
20260503171711 56 11 3.0 8.0 0.00 0.00 0.00 57 1016.6
20260503171218 56 318 4.0 8.0 0.00 0.00 0.00 58 1016.6
20260503170729 57 312 4.0 8.0 0.00 0.00 0.00 58 1016.6
20260503160218 60 92 0.0 0.0 0.00 0.00 0.00 50 1016.6
20260503150725 62 113 4.0 15.0 0.00 0.00 0.00 45 1016.1
20260503150217 62 9 5.0 17.0 0.00 0.00 0.00 44 1016.0
20260503131220 69 258 4.0 13.0 0.00 0.00 0.00 42 1015.6
20260503130715 69 46 6.0 17.0 0.00 0.00 0.00 43 1015.8
20260503130218 69 331 7.0 17.0 0.00 0.00 0.00 44 1015.7
20260503120216 69 307 1.0 4.0 0.00 0.00 0.00 40 1015.8
20260503110725 67 122 0.0 0.0 0.00 0.00 0.00 38 1016.4
20260503100231 65 174 0.0 0.0 0.00 0.00 0.00 41 1016.9
20260503090213 66 174 2.0 6.0 0.00 0.00 0.00 42 1017.0
20260503081220 64 172 0.0 0.0 0.00 0.00 0.00 50 1017.3
20260503080234 63 156 0.0 0.0 0.00 0.00 0.00 51 1017.4
20260503072725 60 176 0.0 0.0 0.00 0.00 0.00 60 1017.5
20260503072226 60 159 0.0 0.0 0.00 0.00 0.00 61 1017.5
20260503071712 59 184 0.0 0.0 0.00 0.00 0.00 61 1017.5
20260503071218 58 182 0.0 0.0 0.00 0.00 0.00 64 1017.5
20260503070715 57 163 0.0 0.0 0.00 0.00 0.00 68 1017.7
20260503070219 56 178 0.0 0.0 0.00 0.00 0.00 71 1017.7
20260503060229 53 320 0.0 0.0 0.00 0.00 0.00 76 1017.4
20260503054721 52 165 0.0 0.0 0.00 0.00 0.00 76 1017.4
20260503054209 52 242 0.0 0.0 0.00 0.00 0.00 75 1017.3
20260503053714 52 242 0.0 0.0 0.00 0.00 0.00 75 1017.4
20260503053213 51 242 0.0 0.0 0.00 0.00 0.00 76 1017.3
20260503052716 51 242 0.0 0.0 0.00 0.00 0.00 75 1017.4
20260503052215 51 242 0.0 0.0 0.00 0.00 0.00 75 1017.3
20260503051714 51 242 0.0 0.0 0.00 0.00 0.00 75 1017.2
20260503051212 51 242 0.0 0.0 0.00 0.00 0.00 74 1017.2
20260503050208 51 176 0.0 0.0 0.00 0.00 0.00 73 1017.2
20260503045723 51 176 0.0 0.0 0.00 0.00 0.00 73 1017.2
20260503045220 51 176 0.0 0.0 0.00 0.00 0.00 73 1017.2
20260503044732 51 138 0.0 5.0 0.00 0.00 0.00 74 1017.1
20260503044214 51 135 1.0 5.0 0.00 0.00 0.00 74 1017.0
20260503043711 51 214 1.0 5.0 0.00 0.00 0.00 73 1017.0
20260503042717 51 39 0.0 0.0 0.00 0.00 0.00 74 1016.9
20260503042217 51 39 0.0 0.0 0.00 0.00 0.00 73 1017.0
20260503041721 51 39 0.0 0.0 0.00 0.00 0.00 74 1016.9
20260503041223 51 39 0.0 0.0 0.00 0.00 0.00 74 1016.9
20260503040714 51 39 0.0 0.0 0.00 0.00 0.00 73 1016.9
20260503040214 52 39 0.0 0.0 0.00 0.00 0.00 73 1016.9
20260503035719 52 39 0.0 0.0 0.00 0.00 0.00 73 1017.0
20260503035228 52 39 0.0 0.0 0.00 0.00 0.00 73 1017.0
20260503034215 52 39 0.0 0.0 0.00 0.00 0.00 73 1017.0
20260503033715 52 39 0.0 0.0 0.00 0.00 0.00 73 1017.0
20260503033224 52 32 0.0 0.0 0.00 0.00 0.00 74 1017.0
20260503032713 52 32 0.0 0.0 0.00 0.00 0.00 74 1017.1
20260503032216 52 32 0.0 4.0 0.00 0.00 0.00 74 1017.1
20260503031726 52 28 0.0 6.0 0.00 0.00 0.00 74 1017.1
20260503031215 52 5 1.0 6.0 0.00 0.00 0.00 73 1017.1
20260503030229 52 355 0.0 0.0 0.00 0.00 0.00 76 1017.2
20260503025733 52 355 0.0 0.0 0.00 0.00 0.00 77 1017.2
20260503025218 52 69 0.0 0.0 0.00 0.00 0.00 77 1017.3
20260503023724 52 69 0.0 0.0 0.00 0.00 0.00 76 1017.5
20260503022213 52 69 0.0 0.0 0.00 0.00 0.00 76 1017.7
20260503021225 52 69 0.0 0.0 0.00 0.00 0.00 76 1017.7
20260503020210 53 69 0.0 0.0 0.00 0.00 0.00 75 1017.8
20260503015728 53 69 0.0 0.0 0.00 0.00 0.00 76 1017.8
20260503015208 53 69 0.0 0.0 0.00 0.00 0.00 76 1017.8
20260503014709 53 69 0.0 0.0 0.00 0.00 0.00 75 1017.9
20260503014215 53 69 0.0 0.0 0.00 0.00 0.00 74 1017.9
20260503013715 53 69 0.0 0.0 0.00 0.00 0.00 76 1017.9
20260503013208 53 69 0.0 0.0 0.00 0.00 0.00 76 1018.0
20260503012709 53 69 0.0 0.0 0.00 0.00 0.00 76 1018.0
20260503012220 53 69 0.0 0.0 0.00 0.00 0.00 75 1018.0
20260503011717 53 69 0.0 0.0 0.00 0.00 0.00 76 1017.9
20260503011220 53 69 0.0 0.0 0.00 0.00 0.00 75 1018.0
20260503010727 53 69 0.0 0.0 0.00 0.00 0.00 76 1017.9
20260503010212 53 69 0.0 0.0 0.00 0.00 0.00 76 1017.9
20260503005714 53 69 0.0 0.0 0.00 0.00 0.00 76 1018.0
20260503005231 53 69 0.0 0.0 0.00 0.00 0.00 76 1018.0
20260503004726 53 41 0.0 0.0 0.00 0.00 0.00 76 1018.1
20260503004212 53 41 0.0 0.0 0.00 0.00 0.00 74 1018.1